Starlink 35128

operational
NORAD ID: 65628 Int'l Des: 2025-210 Owner: SPXS Country: US Constellation: starlink
NOTLE

关于 Starlink 35128

正在加载描述...

实时位置

正在加载3D地球...

即将过境

高度历史

Altitude vs Time

uPlot chart will show altitude changes over time

两行轨道根数

1 65628U 25210G 25340.82959334 .00076758 00000-0 25736-2 0 9992
2 65628 53.1608 18.4232 0001540 77.8286 282.2887 15.30243360 13514
Epoch: Dec 6, 2025 • Age: 17 hours

当前状态

高度 491.9 km
速度 7.62 km/s
星下点 -47.52°S, 51.23°E
发射日期 Sep 18, 2025
运行时间 0.2 years
类型 internet

技术详情

分类 Payload
质量 575.00 kg
干质量 530.00 kg
总质量 575.00 kg
长度 0.30 m
直径 4.10 m
跨度 29.00 m
形状 Box + pan
制造商 SPXS
平台类型 Starlink V2MO
阶段状态 In Orbit
所有者/国家 SPXS/US

大型星座

Loading constellations...